Location: �couen
(49.0206°N, 2.3831°E)
Time: 06:08:52
(UTC+00:00)

Cosmos 1758 - Pass Details

Date: 29 May 2022
Orbit: 538 x 557 km, 82.5° (Epoch: 03 July)

Event Time Altitude Azimuth Distance (km) Brightness Sun altitude
Rises 23:37:55 0° 345° (NNW) 2,715 8.4 -19.2°
Reaches altitude 10° 23:40:07 10° 341° (NNW) 1,821 7.1 -19.2°
Maximum altitude 23:44:00 51° 265° (W) 691 3.7 -19.2°
Enters shadow 23:44:51 42° 223° (SW) 785 3.7 -19.2°
